This demonstration page uses our WeatherBlox Daily Observations layout. Learn more.

Left ArrowRight Arrow

Hourly Observations for April 20, 2018

Temp ( °F °C ) Dew Point ( °F °C ) Humidity (%) Winds ( mph kmh ) Pressure ( in mb ) Visibility ( mi km ) Precip ( " mm )
12:53 am 00:53 Clear 49 9.4 41 5 74 74 N 7 11 30.12 1020 10 16 0.00 0.00
1:53 am 01:53 Clear 48 8.9 40 4.4 74 74 Calm 30.13 1020 10 16 0.00 0.00
2:53 am 02:53 Clear 51 10.6 39 3.9 64 64 NNE 3 6 30.12 1020 10 16 0.00 0.00
3:53 am 03:53 Clear 51 10.6 39 3.9 64 64 NNW 7 11 30.13 1020 10 16 0.00 0.00
4:53 am 04:53 Clear 51 10.6 39 3.9 64 64 W 7 11 30.13 1020 10 16 0.00 0.00
5:53 am 05:53 Clear 51 10.6 39 3.9 64 64 NNW 7 11 30.14 1021 10 16 0.00 0.00
6:53 am 06:53 Sunny 48 8.9 39 3.9 71 71 N 7 11 30.14 1021 10 16 0.00 0.00
7:53 am 07:53 Sunny 58 14.4 39 3.9 50 50 NNW 7 11 30.16 1021 10 16 0.00 0.00
8:53 am 08:53 Sunny 63 17.2 40 4.4 43 43 N 8 13 30.16 1021 10 16 0.00 0.00
9:53 am 09:53 Sunny 67 19.4 37 2.8 33 33 N 9 15 30.16 1021 10 16 0.00 0.00
10:53 am 10:53 Sunny 70 21.1 38 3.3 31 31 VRB 5 7 30.14 1021 10 16 0.00 0.00
11:53 am 11:53 Sunny 74 23.3 39 3.9 28 28 NNE 8 13 30.13 1020 10 16 0.00 0.00
12:53 pm 12:53 Sunny 77 25 32 0 19 19 NNW 9 15 30.11 1020 10 16 0.00 0.00
1:53 pm 13:53 Sunny 78 25.6 34 1.1 20 20 ENE 3 6 30.08 1019 10 16 0.00 0.00
2:53 pm 14:53 Sunny 79 26.1 35 1.7 20 20 Calm 30.06 1018 10 16 0.00 0.00
3:53 pm 15:53 Sunny 81 27.2 30 -1.1 16 16 ENE 5 7 30.04 1017 10 16 0.00 0.00
4:53 pm 16:53 Sunny 82 27.8 25 -3.9 12 12 Calm 30.03 1017 10 16 0.00 0.00
5:53 pm 17:53 Sunny 80 26.7 35 1.7 20 20 ESE 5 7 30.02 1017 10 16 0.00 0.00
6:53 pm 18:53 Sunny 78 25.6 35 1.7 21 21 SSE 5 7 30.03 1017 10 16 0.00 0.00
7:53 pm 19:53 Sunny 71 21.7 42 5.6 35 35 S 5 7 30.02 1017 10 16 0.00 0.00
8:53 pm 20:53 Clear 68 20 42 5.6 39 39 Calm 30.04 1017 10 16 0.00 0.00
9:53 pm 21:53 Clear 62 16.7 43 6.1 50 50 Calm 30.06 1018 10 16 0.00 0.00
10:53 pm 22:53 Clear 59 15 46 7.8 62 62 NNE 5 7 30.08 1019 10 16 0.00 0.00
11:53 pm 23:53 Clear 58 14.4 44 6.7 60 60 Calm 30.09 1019 10 16 0.00 0.00

Powered by AerisWeather